[sarex] 2 Line ISS Keps 9-29

Dave Larsen PhD doc at volcano.net
Thu Sep 28 19:45:01 PDT 2006


ISS
1 25544U 98067A   06271.92812500  .00013739  00000-0  89180-4 0  7624
2 25544 051.6381 013.0552 0012769 037.3578 132.3767 15.76249096449522


More information about the SAREX mailing list